• Em Portugal
  • Lista de países
  • Para 7 dias
  • Temperatura da água
  • Mapas de satélite
  • Mapa do tempo
  • Widgets de tempo
  • user-avatar
    Iniciar Sessão

    Previsão horária em Cvetochnaya Balka

    Hoje, 19 Julho, Quinta-feira

    Tempo Temperatura Precipitação Vento Pressão Humidade
    00:00 +18°C° 0 mm 3 m/s 731 mmHg 98%
    01:00 +18°C° 0 mm 3 m/s 731 mmHg 98%
    02:00 +18°C° 0 mm 2 m/s 731 mmHg 99%
    03:00 +19°C° 0,1 mm 2 m/s 731 mmHg 98%
    04:00 +19°C° 0,1 mm 2 m/s 731 mmHg 98%
    05:00 +19°C° 0,1 mm 3 m/s 732 mmHg 97%
    06:00 +20°C° 0,4 mm 3 m/s 732 mmHg 95%
    07:00 +20°C° 0,4 mm 3 m/s 732 mmHg 93%
    08:00 +21°C° 0,4 mm 3 m/s 732 mmHg 91%
    09:00 +21°C° 0,6 mm 4 m/s 732 mmHg 89%
    10:00 +22°C° 0,6 mm 4 m/s 731 mmHg 88%
    11:00 +22°C° 0,6 mm 4 m/s 731 mmHg 87%
    12:00 +22°C° 0,5 mm 4 m/s 731 mmHg 86%
    13:00 +23°C° 0,5 mm 5 m/s 731 mmHg 84%
    14:00 +23°C° 0,5 mm 5 m/s 731 mmHg 83%
    15:00 +23°C° 0,1 mm 4 m/s 731 mmHg 83%
    16:00 +23°C° 0,1 mm 4 m/s 731 mmHg 83%
    17:00 +24°C° 0,1 mm 3 m/s 731 mmHg 84%
    18:00 +22°C° 0 mm 3 m/s 731 mmHg 87%
    19:00 +21°C° 0 mm 2 m/s 731 mmHg 91%
    20:00 +20°C° 0 mm 2 m/s 731 mmHg 95%
    21:00 +20°C° 0 mm 1 m/s 731 mmHg 96%
    22:00 +20°C° 0 mm 1 m/s 731 mmHg 96%
    23:00 +19°C° 0 mm 1 m/s 731 mmHg 97%

    Amanhã, 20 Julho, Sexta-feira

    Tempo Temperatura Precipitação Vento Pressão Humidade
    00:00 +19°C° 0 mm 1 m/s 731 mmHg 97%
    01:00 +19°C° 0 mm 1 m/s 731 mmHg 97%
    02:00 +19°C° 0 mm 1 m/s 731 mmHg 98%
    03:00 +19°C° 0 mm 1 m/s 732 mmHg 97%
    04:00 +19°C° 0 mm 1 m/s 732 mmHg 97%
    05:00 +20°C° 0 mm 1 m/s 732 mmHg 97%
    06:00 +21°C° 0 mm 1 m/s 732 mmHg 94%
    07:00 +22°C° 0 mm 1 m/s 732 mmHg 91%
    08:00 +23°C° 0 mm 1 m/s 732 mmHg 87%
    09:00 +24°C° 0,1 mm 1 m/s 732 mmHg 83%
    10:00 +25°C° 0,1 mm 1 m/s 732 mmHg 78%
    11:00 +26°C° 0,1 mm 1 m/s 732 mmHg 73%
    12:00 +27°C° 0,2 mm 1 m/s 732 mmHg 72%
    13:00 +27°C° 0,2 mm 1 m/s 732 mmHg 70%
    14:00 +28°C° 0,2 mm 1 m/s 732 mmHg 69%
    15:00 +27°C° 0,3 mm 2 m/s 732 mmHg 72%
    16:00 +27°C° 0,3 mm 2 m/s 732 mmHg 76%
    17:00 +27°C° 0,3 mm 2 m/s 732 mmHg 79%
    18:00 +25°C° 0,1 mm 2 m/s 732 mmHg 83%
    19:00 +24°C° 0,1 mm 1 m/s 733 mmHg 87%
    20:00 +23°C° 0,1 mm 1 m/s 733 mmHg 91%
    21:00 +22°C° 0,1 mm 1 m/s 733 mmHg 91%
    22:00 +22°C° 0,1 mm 1 m/s 733 mmHg 92%
    23:00 +21°C° 0,1 mm 1 m/s 733 mmHg 93%

    Depois de amanhã, 21 Julho, Sábado

    Tempo Temperatura Precipitação Vento Pressão Humidade
    00:00 +21°C° 0 mm 1 m/s 733 mmHg 93%
    01:00 +21°C° 0 mm 1 m/s 733 mmHg 94%
    02:00 +20°C° 0 mm 1 m/s 733 mmHg 94%
    03:00 +21°C° 0,1 mm 1 m/s 733 mmHg 94%
    04:00 +21°C° 0,1 mm 1 m/s 734 mmHg 94%
    05:00 +21°C° 0,1 mm 1 m/s 734 mmHg 94%
    06:00 +22°C° 0 mm 1 m/s 734 mmHg 90%
    07:00 +24°C° 0 mm 1 m/s 734 mmHg 86%
    08:00 +25°C° 0 mm 1 m/s 734 mmHg 81%
    09:00 +26°C° 0,5 mm 1 m/s 734 mmHg 77%
    10:00 +27°C° 0,5 mm 2 m/s 734 mmHg 73%
    11:00 +28°C° 0,5 mm 2 m/s 734 mmHg 69%
    12:00 +28°C° 0,6 mm 2 m/s 734 mmHg 68%
    13:00 +29°C° 0,6 mm 2 m/s 734 mmHg 67%
    14:00 +29°C° 0,6 mm 2 m/s 734 mmHg 66%
    15:00 +29°C° 0,3 mm 2 m/s 734 mmHg 68%
    16:00 +29°C° 0,3 mm 2 m/s 734 mmHg 70%
    17:00 +29°C° 0,3 mm 1 m/s 734 mmHg 71%
    18:00 +27°C° 0,4 mm 1 m/s 734 mmHg 76%
    19:00 +25°C° 0,4 mm 1 m/s 734 mmHg 81%
    20:00 +24°C° 0,4 mm 1 m/s 734 mmHg 86%
    21:00 +23°C° 0,3 mm 1 m/s 734 mmHg 88%
    22:00 +22°C° 0,3 mm 1 m/s 734 mmHg 90%
    23:00 +22°C° 0,3 mm 1 m/s 733 mmHg 91%

    22 Julho, Domingo

    Tempo Temperatura Precipitação Vento Pressão Humidade
    00:00 +21°C° 0 mm 1 m/s 733 mmHg 92%
    01:00 +21°C° 0 mm 1 m/s 733 mmHg 92%
    02:00 +21°C° 0 mm 1 m/s 733 mmHg 93%
    03:00 +21°C° 0 mm 1 m/s 734 mmHg 93%
    04:00 +21°C° 0 mm 1 m/s 734 mmHg 94%
    05:00 +20°C° 0 mm 2 m/s 734 mmHg 94%
    06:00 +23°C° 0 mm 2 m/s 734 mmHg 90%
    07:00 +24°C° 0 mm 2 m/s 734 mmHg 86%
    08:00 +26°C° 0 mm 2 m/s 734 mmHg 82%
    09:00 +26°C° 0,8 mm 3 m/s 734 mmHg 79%
    10:00 +27°C° 0,8 mm 3 m/s 733 mmHg 75%
    11:00 +28°C° 0,8 mm 3 m/s 733 mmHg 72%
    12:00 +28°C° 1,6 mm 3 m/s 733 mmHg 72%
    13:00 +28°C° 1,6 mm 3 m/s 733 mmHg 73%
    14:00 +28°C° 1,6 mm 3 m/s 733 mmHg 73%
    15:00 +28°C° 0,4 mm 2 m/s 733 mmHg 74%
    16:00 +28°C° 0,4 mm 2 m/s 733 mmHg 76%
    17:00 +27°C° 0,4 mm 2 m/s 733 mmHg 78%
    18:00 +26°C° 0,2 mm 2 m/s 733 mmHg 82%
    19:00 +24°C° 0,2 mm 2 m/s 733 mmHg 87%
    20:00 +23°C° 0,2 mm 2 m/s 733 mmHg 92%
    21:00 +21°C° 0,1 mm 2 m/s 733 mmHg 93%
    22:00 +21°C° 0,1 mm 2 m/s 733 mmHg 94%
    23:00 +20°C° 0,1 mm 2 m/s 733 mmHg 96%

    23 Julho, Segunda-feira

    Tempo Temperatura Precipitação Vento Pressão Humidade
    00:00 +21°C° 0 mm 1 m/s 733 mmHg 96%
    01:00 +20°C° 0 mm 1 m/s 733 mmHg 96%
    02:00 +20°C° 0 mm 1 m/s 733 mmHg 96%
    03:00 +20°C° 0 mm 1 m/s 733 mmHg 96%
    04:00 +20°C° 0 mm 1 m/s 733 mmHg 96%
    05:00 +20°C° 0 mm 1 m/s 733 mmHg 96%
    06:00 +22°C° 0 mm 1 m/s 733 mmHg 92%
    07:00 +23°C° 0 mm 2 m/s 733 mmHg 87%
    08:00 +24°C° 0 mm 2 m/s 733 mmHg 83%
    09:00 +25°C° 0,2 mm 2 m/s 733 mmHg 79%
    10:00 +26°C° 0,2 mm 2 m/s 733 mmHg 75%
    11:00 +27°C° 0,2 mm 2 m/s 733 mmHg 72%
    12:00 +27°C° 0,8 mm 2 m/s 733 mmHg 71%
    13:00 +28°C° 0,8 mm 2 m/s 733 mmHg 70%
    14:00 +28°C° 0,8 mm 2 m/s 733 mmHg 70%
    15:00 +28°C° 1,3 mm 2 m/s 733 mmHg 73%
    16:00 +27°C° 1,3 mm 2 m/s 733 mmHg 76%
    17:00 +27°C° 1,3 mm 2 m/s 733 mmHg 79%
    18:00 +26°C° 0,7 mm 2 m/s 733 mmHg 82%
    19:00 +24°C° 0,7 mm 2 m/s 733 mmHg 86%
    20:00 +23°C° 0,7 mm 2 m/s 733 mmHg 89%
    21:00 +21°C° 0 mm 2 m/s 734 mmHg 91%
    22:00 +21°C° 0 mm 2 m/s 734 mmHg 93%
    23:00 +20°C° 0 mm 2 m/s 734 mmHg 94%

    24 Julho, Terça-feira

    Tempo Temperatura Precipitação Vento Pressão Humidade
    00:00 +20°C° 0 mm 2 m/s 734 mmHg 95%
    01:00 +19°C° 0 mm 2 m/s 734 mmHg 95%
    02:00 +19°C° 0 mm 2 m/s 734 mmHg 96%
    03:00 +19°C° 0 mm 2 m/s 734 mmHg 96%
    04:00 +19°C° 0 mm 2 m/s 734 mmHg 96%
    05:00 +19°C° 0 mm 2 m/s 735 mmHg 96%
    06:00 +20°C° 0,1 mm 2 m/s 735 mmHg 93%
    07:00 +22°C° 0,1 mm 3 m/s 735 mmHg 89%
    08:00 +24°C° 0,1 mm 3 m/s 736 mmHg 86%
    09:00 +25°C° 0,5 mm 3 m/s 736 mmHg 83%
    10:00 +26°C° 0,5 mm 3 m/s 736 mmHg 79%
    11:00 +26°C° 0,5 mm 3 m/s 736 mmHg 76%
    12:00 +27°C° 0,5 mm 3 m/s 736 mmHg 76%
    13:00 +27°C° 0,5 mm 3 m/s 736 mmHg 76%
    14:00 +27°C° 0,5 mm 3 m/s 736 mmHg 76%
    15:00 +27°C° 0,3 mm 3 m/s 736 mmHg 77%
    16:00 +27°C° 0,3 mm 3 m/s 736 mmHg 77%
    17:00 +27°C° 0,3 mm 3 m/s 736 mmHg 78%
    18:00 +26°C° 0,2 mm 3 m/s 736 mmHg 82%
    19:00 +24°C° 0,2 mm 3 m/s 736 mmHg 87%
    20:00 +22°C° 0,2 mm 3 m/s 736 mmHg 91%
    21:00 +21°C° 0 mm 2 m/s 737 mmHg 92%
    22:00 +21°C° 0 mm 2 m/s 737 mmHg 93%
    23:00 +20°C° 0 mm 2 m/s 737 mmHg 94%
    Mostrar mais